Home   Weather   Walnut Creek   Past weeks

Flag for USA Past Weather in Walnut Creek, California, USA — Yesterday and Last 2 Weeks

Now
82 °F

Sunny.


Feels Like: 82 °F
Forecast: 56 / 77 °F
Wind: 9 mph from South

Location: Buchanan Field

Current Time: Aug 16, 2017 at 3:02:11 pm

Latest Report: Aug 16, 2017 at 1:53 pm


Visibility: 10 mi

Pressure: 29.88 "Hg

Humidity: 41%

Dew Point: 56 °F

Location of Walnut CreekLocation

Past Weather in Walnut Creek — Graph

°F

Walnut Creek Temperature Yesterday

Maximum temperature yesterday: 76 °F (at 3:53 pm)
Minimum temperature yesterday: 59 °F (at 10:53 pm)
Average temperature yesterday: 66 °F

High & Low Weather Summary for the Past Weeks

 TemperatureHumidityPressure
High100 °F (Aug 1, 3:53 pm)90% (Aug 11, 3:53 am)29.95 "Hg (Aug 11, 3:53 am)
Low57 °F (Aug 16, 6:53 am)11% (Aug 2, 7:53 pm)29.74 "Hg (Aug 1, 5:53 pm)
Average71 °F62%29.86 "Hg
* Reported Aug 1 12:53 pm — Aug 16 12:53 pm, Walnut Creek. Weather by CustomWeather, © 2017

Note: Actual official high and low records may vary slightly from our data, if they occured in-between our weather recording intervals... More about our weather records

Advertising

Walnut Creek Weather History for the Previous 24 Hours

Scroll right to see more
 ConditionsComfort  
Time TempWeatherWind HumidityBarometerVisibility
12:53 pm
Wed, Aug 16
79 °FSunny.6 mph45%29.89 "Hg10 mi
11:53 am76 °FSunny.7 mph50%29.90 "Hg10 mi
10:53 am72 °FSunny.8 mph57%29.91 "Hg10 mi
9:53 am69 °FSunny.12 mph61%29.92 "Hg10 mi
8:53 am66 °FSunny.12 mph68%29.92 "Hg10 mi
7:53 am63 °FPassing clouds.5 mph75%29.91 "Hg10 mi
6:53 am57 °FPassing clouds.No wind87%29.90 "Hg10 mi
5:53 am58 °FPassing clouds.No wind84%29.89 "Hg10 mi
4:53 am58 °FClear.3 mph84%29.87 "Hg10 mi
3:53 am58 °FPassing clouds.5 mph84%29.88 "Hg10 mi
2:53 am60 °FClear.10 mph78%29.87 "Hg10 mi
1:53 am60 °FClear.8 mph80%29.87 "Hg10 mi
12:53 am60 °FClear.10 mph78%29.87 "Hg10 mi
11:53 pm
Tue, Aug 15
60 °FClear.13 mph78%29.87 "Hg10 mi
10:53 pm59 °FClear.12 mph81%29.86 "Hg10 mi
9:53 pm60 °FClear.13 mph78%29.86 "Hg10 mi
8:53 pm61 °FClear.13 mph75%29.83 "Hg10 mi
7:53 pm63 °FSunny.15 mph70%29.83 "Hg10 mi
6:53 pm68 °FSunny.14 mph61%29.81 "Hg10 mi
5:53 pm72 °FSunny.18 mph53%29.81 "Hg10 mi
4:53 pm75 °FSunny.16 mph48%29.80 "Hg10 mi
3:53 pm76 °FSunny.15 mph47%29.81 "Hg10 mi
Weather by CustomWeather, © 2017

See weather overviewHow to use our weather pages